Home   Weather   Skopje   Past weeks

Flag for Macedonia, Republic of Past Weather in Skopje, Macedonia, Republic of — Yesterday and Last 2 Weeks

Now
68 °F

Partly cloudy.


Feels Like: 68 °F
Forecast: 50 / 67 °F
Wind: 7 mph from Northeast

Location: Skopje-Petrovec

Current Time: Apr 29, 2017 at 9:39:18 pm

Latest Report: Apr 29, 2017 at 9:00 pm


Visibility: N/A

Pressure: 29.86 "Hg

Humidity: 46%

Dew Point: 46 °F

Location of SkopjeLocation

Past Weather in Skopje — Graph

°F

Skopje Temperature Yesterday

Maximum temperature yesterday: 84 °F (at 3:00 pm)
Minimum temperature yesterday: 48 °F (at 4:30 am)
Average temperature yesterday: 66 °F

High & Low Weather Summary for the Past Weeks

 TemperatureHumidityPressure
High84 °F (Apr 28, 3:00 pm)93% (Apr 19, 9:30 pm)30.33 "Hg (Apr 19, 9:30 pm)
Low28 °F (Apr 22, 6:30 am)24% (Apr 26, 3:00 pm)29.77 "Hg (Apr 19, 9:00 am)
Average52 °F61%30.05 "Hg
* Reported Apr 19 9:00 am — Apr 29 8:00 pm, Skopje, Weather by CustomWeather, © 2017

Note: Actual official high and low records may vary slightly from our data, if they occured in-between our weather recording intervals... More about our weather records

Advertising

Skopje Weather History for the Previous 24 Hours

Scroll right to see more
 ConditionsComfort  
Time TempWeatherWind HumidityBarometerVisibility
8:00 pm
Sat, Apr 29
68 °FPartly cloudy.3 mph40%29.83 "HgN/A
7:30 pm70 °FMostly cloudy.7 mph38%29.83 "HgN/A
7:00 pm72 °FMore clouds than sun.7 mph33%29.83 "HgN/A
6:30 pm73 °FMore clouds than sun.12 mph31%29.83 "HgN/A
6:00 pm73 °FMore clouds than sun.14 mph33%29.83 "HgN/A
5:30 pm73 °FMore clouds than sun.15 mph33%29.83 "HgN/A
5:00 pm73 °FMore clouds than sun.13 mph41%29.83 "HgN/A
4:30 pm75 °FMore clouds than sun.13 mph36%29.83 "HgN/A
4:00 pm73 °FMore clouds than sun.18 mph36%29.83 "HgN/A
3:30 pm72 °FMore clouds than sun.12 mph47%29.83 "HgN/A
2:00 pm70 °FMore clouds than sun.2 mph50%29.89 "HgN/A
1:30 pm70 °FPartly sunny.3 mph46%29.89 "HgN/A
1:00 pm70 °FPartly sunny.1 mph46%29.89 "HgN/A
12:30 pm68 °FPartly sunny.1 mph49%29.89 "HgN/A
12:00 pm70 °FPartly sunny.No wind46%29.89 "HgN/A
11:30 am68 °FPartly sunny.2 mph49%29.89 "HgN/A
11:00 am68 °FPartly sunny.No wind49%29.89 "HgN/A
10:30 am66 °FPartly sunny.1 mph56%29.92 "HgN/A
9:30 am61 °FPartly sunny.No wind72%29.92 "HgN/A
9:00 am59 °FPartly sunny.No wind77%29.92 "HgN/A
8:30 am59 °FPartly sunny.No wind77%29.92 "HgN/A
8:00 am57 °FPartly sunny.No wind82%29.92 "HgN/A
7:30 am57 °FPartly sunny.No wind77%29.92 "HgN/A
7:00 am55 °FPartly sunny.1 mph82%29.89 "HgN/A
6:30 am55 °FPartly sunny.2 mph77%29.92 "HgN/A
6:00 am57 °FPartly sunny.3 mph72%29.89 "HgN/A
5:30 am55 °FPassing clouds.No wind77%29.89 "HgN/A
5:00 am57 °FPassing clouds.No wind72%29.92 "HgN/A
4:30 am57 °FPassing clouds.3 mph72%29.92 "HgN/A
4:00 am57 °FPassing clouds.3 mph72%29.92 "HgN/A
3:30 am57 °FPassing clouds.No wind67%29.92 "HgN/A
3:00 am57 °FPassing clouds.2 mph72%29.92 "HgN/A
2:30 am57 °FPassing clouds.2 mph67%29.92 "HgN/A
2:00 am59 °FPassing clouds.No wind63%29.92 "HgN/A
1:30 am59 °FPassing clouds.No wind63%29.92 "HgN/A
1:00 am59 °FPassing clouds.No wind63%29.92 "HgN/A
12:30 am61 °FPassing clouds.3 mph59%29.92 "HgN/A
12:00 am63 °FPassing clouds.7 mph56%29.92 "HgN/A
11:30 pm
Fri, Apr 28
63 °FClear.3 mph56%29.92 "Hg10 mi
11:00 pm63 °FClear.2 mph56%29.92 "Hg10 mi
10:30 pm66 °FClear.5 mph49%29.92 "Hg10 mi
10:00 pm68 °FClear.6 mph43%29.92 "Hg10 mi
9:30 pm68 °FClear.5 mph46%29.92 "Hg10 mi
9:00 pm70 °FPassing clouds.5 mph40%29.89 "HgN/A
Weather by CustomWeather, © 2017

See weather overviewHow to use our weather pages